Location: Fours
(44.3167°N, 6.7000°E)
Time: 23:19:52
(UTC+00:00)

Spot 2 - Pass Details

Date: 16 October 2021
Orbit: 570 x 772 km, 98.7° (Epoch: 26 November)

Event Time Altitude Azimuth Distance (km) Brightness Sun altitude
Rises 18:10:36 0° 168° (SSE) 2,761 7.2 -15.7°
Reaches altitude 10° 18:12:43 10° 169° (S) 1,873 6.4 -16.0°
Maximum altitude 18:16:45 78° 256° (WSW) 601 4.0 -16.8°
Drops below altitude 10° 18:20:56 10° 343° (NNW) 1,946 6.9 -17.5°
Sets 18:23:10 0° 345° (NNW) 2,880 7.7 -17.9°
